Lapse_Rate
5.9 5.4 5.6 5.5 6.2 6.6 6.1 6.0 6.4 6.7 6.6 7.8 6.9 6.7 6.6 6.8 6.8 6.4 6.3 6.1 5.8 5.4 5.5 5.5 5.5 5.6 5.7 5.6 5.5 5.3 5.2 5.1 5.1 5.2 5.3 5.3 5.2 5.1
6.0 5.9 5.8 5.8 6.0 6.6 6.2 5.7 6.3 5.4 6.5 7.6 7.3 7.0 6.8 6.8 7.2 6.8 6.4 6.3 5.7 5.3 5.4 5.5 5.6 5.7 5.7 5.7 5.6 5.6 5.5 5.4 5.3 5.3 5.3 5.3 5.2 5.3
6.0 5.7 5.7 5.9 6.4 6.7 6.4 5.7 6.4 5.9 6.4 6.7 7.7 6.7 6.7 6.4 6.7 6.9 6.7 6.5 6.4 5.8 5.7 5.9 5.8 5.8 5.8 5.9 5.8 5.9 5.8 5.7 5.7 5.6 5.5 5.2 5.1 5.3
6.3 5.9 6.1 5.9 6.4 6.1 6.2 6.3 6.2 5.7 5.4 6.4 7.5 6.8 6.6 6.4 6.6 6.9 7.0 6.9 6.7 6.6 6.2 6.0 6.1 6.1 6.1 6.2 6.2 6.2 6.1 6.1 6.3 6.2 6.1 5.6 5.6 5.5
6.1 5.8 6.4 6.2 6.5 6.1 6.3 6.0 6.1 5.4 6.3 6.9 7.5 6.9 6.5 6.3 6.2 6.5 6.7 6.8 6.6 6.6 6.4 6.1 6.1 6.1 6.3 6.5 6.6 6.6 6.6 6.6 6.6 6.4 6.4 6.0 5.9 5.9
6.1 6.1 6.5 6.6 6.3 5.9 6.1 5.9 5.7 5.8 5.5 5.4 6.3 6.8 6.5 6.5 6.1 6.4 6.7 6.9 6.9 6.7 6.5 6.8 6.4 6.4 6.6 6.6 6.6 6.8 6.7 6.5 6.5 6.3 6.2 6.0 5.8 5.8
6.1 5.8 6.1 6.4 6.6 6.5 6.0 6.0 6.1 5.8 5.9 6.3 6.3 7.2 6.6 6.4 6.0 6.3 6.6 6.5 6.6 6.6 6.4 6.5 6.3 6.5 6.6 6.6 6.7 6.6 6.6 6.4 6.1 5.8 5.6 5.8 5.9 6.0
5.8 5.7 6.2 6.3 6.7 6.3 5.9 6.0 6.2 6.0 5.9 6.3 5.9 7.1 6.9 6.5 6.5 6.6 6.3 6.5 6.4 6.6 6.4 6.3 6.3 6.4 6.3 6.3 6.6 6.6 6.6 6.4 6.1 6.1 6.0 5.8 5.4 5.5
5.9 6.1 6.1 6.3 6.6 6.3 5.9 5.9 6.2 5.7 6.2 5.6 6.1 7.1 7.3 7.0 6.9 7.0 6.8 7.1 7.0 7.4 6.8 6.4 6.1 6.1 6.1 6.0 6.2 6.3 6.5 6.5 6.3 5.9 6.0 5.8 5.7 5.8
5.9 5.8 6.1 6.4 6.4 6.2 5.8 5.6 5.8 5.9 5.4 5.5 5.9 6.5 7.5 7.0 7.1 7.5 7.4 7.2 7.1 7.1 7.2 6.3 6.2 5.9 5.9 5.9 6.3 6.6 6.7 6.7 6.1 5.5 5.7 5.6 5.5 5.4
5.7 5.7 5.8 6.0 6.2 6.2 5.7 5.8 5.8 6.0 5.4 5.6 5.1 5.9 6.8 6.9 6.8 6.9 6.7 7.2 6.7 6.5 6.6 6.2 6.2 6.1 5.7 5.8 5.9 6.1 6.1 6.2 6.2 5.2 5.4 5.6 5.5 5.4
5.5 5.0 5.1 5.5 5.8 6.3 5.3 6.0 5.9 5.9 5.6 5.2 5.0 5.3 6.1 6.4 6.7 6.9 6.8 6.8 6.6 6.5 6.6 6.3 6.2 6.3 6.1 5.9 5.9 6.0 5.9 6.4 5.9 5.6 5.7 5.7 5.7 5.5
5.4 5.1 5.2 4.9 5.6 5.7 5.6 5.3 6.0 5.6 5.4 4.6 4.9 5.1 5.4 5.9 6.4 6.6 6.6 6.7 7.0 6.5 6.6 6.6 6.4 6.5 6.4 6.2 5.9 6.2 6.2 6.0 5.8 5.4 5.4 5.5 5.3 5.4
5.0 4.8 5.1 5.2 5.7 5.8 6.0 5.7 5.8 5.9 5.9 5.1 4.6 5.0 5.2 5.5 5.9 5.9 5.9 6.3 6.6 6.6 6.4 6.4 6.3 6.4 6.4 6.3 6.0 5.9 5.6 5.3 5.5 5.4 5.5 5.4 5.4 5.2
4.8 4.9 4.6 4.8 5.4 6.0 6.0 6.1 5.8 5.6 6.1 5.9 5.7 5.1 5.1 4.9 5.3 5.5 5.6 6.0 6.3 6.4 6.4 6.4 6.7 6.3 6.5 6.3 6.5 5.8 5.4 5.3 5.2 5.2 5.1 5.2 5.3 5.2
4.7 4.7 4.5 4.4 4.6 6.0 6.0 6.0 5.8 5.9 5.9 6.0 6.0 5.5 5.1 4.9 4.7 4.9 6.1 6.2 6.4 5.8 6.1 6.1 6.4 6.7 6.4 6.7 6.3 5.5 5.0 5.2 5.1 5.2 5.1 5.0 5.0 5.1
4.0 4.1 4.6 3.9 4.0 5.0 5.9 5.9 5.8 5.7 5.7 5.9 6.0 5.8 5.4 4.8 4.9 5.3 5.5 5.6 5.6 6.4 5.9 6.1 6.2 6.1 6.2 6.7 6.4 5.6 5.4 5.1 5.1 5.0 4.9 5.0 5.1 5.1
4.1 4.3 4.5 4.1 3.9 4.0 4.5 5.5 5.9 5.6 5.6 5.6 5.6 5.7 5.2 4.9 5.2 5.6 5.8 5.7 5.2 5.2 6.1 5.9 6.0 6.1 6.1 5.7 5.5 5.4 5.4 5.2 5.1 5.0 5.1 5.1 5.1 5.0
4.2 4.1 3.7 4.0 4.1 3.9 3.5 3.8 4.2 4.7 5.2 5.0 5.4 5.3 5.9 5.2 5.5 5.8 5.6 5.6 5.5 5.7 5.3 5.6 5.5 6.2 5.7 5.6 5.5 5.4 5.2 5.2 5.2 5.1 5.1 5.1 5.0 5.0
4.2 3.9 3.7 3.5 3.3 3.5 3.5 3.5 3.5 3.9 3.9 4.3 4.8 4.8 4.8 5.2 5.5 5.7 5.3 5.8 5.8 5.6 5.9 5.8 5.8 5.2 5.1 5.3 5.4 5.3 5.1 5.1 5.1 5.1 5.2 5.1 5.1 5.0
4.7 3.9 3.8 3.5 3.2 3.1 3.4 3.6 3.8 3.9 4.2 4.2 4.4 4.5 4.2 4.4 4.8 4.9 5.1 5.4 5.2 5.3 5.9 5.4 5.1 4.9 4.9 5.1 5.1 5.1 5.2 5.2 5.0 5.0 5.0 5.0 4.9 4.6
4.4 4.3 3.8 3.6 3.4 3.3 3.2 3.0 3.4 3.7 3.7 4.2 4.3 4.2 4.3 4.4 4.4 4.5 4.6 4.7 4.7 5.0 5.0 5.0 5.2 5.1 5.2 5.1 4.9 4.9 5.0 5.0 4.9 4.8 4.7 4.6 4.4 4.6
4.4 4.2 4.0 4.0 3.5 3.4 3.4 3.3 3.0 3.1 3.5 3.7 4.1 4.2 4.2 4.1 4.2 4.5 4.6 4.6 4.7 4.6 4.5 4.5 4.5 4.6 4.6 4.6 4.6 4.6 4.6 4.4 4.4 4.4 4.5 4.5 4.7 4.6
Wind_Speed
16 18 15 13 14 14 15 12 15 14 12 11 6 14 12 13 19 22 24 25 31 31 32 32 32 32 33 32 31 31 30 30 30 30 29 30 30 30
11 18 17 14 17 16 16 13 12 13 14 10 13 11 15 14 18 19 20 22 29 31 32 32 32 32 32 32 33 32 31 31 30 30 29 29 29 30
15 16 19 19 16 17 16 15 10 10 13 9 11 13 17 17 11 15 19 17 16 28 29 30 32 32 32 32 33 33 33 32 30 29 29 28 28 30
18 16 18 15 22 22 15 17 15 9 11 16 9 9 13 17 15 14 11 10 11 21 27 27 29 30 31 31 31 31 31 31 31 30 29 27 27 24
20 18 18 19 20 17 16 15 14 12 12 13 6 7 9 8 12 10 11 9 7 12 23 25 24 24 25 25 25 25 26 26 24 21 16 13 11 10
20 19 18 18 17 15 16 16 15 13 15 14 11 7 7 7 9 9 7 5 3 2 5 8 14 16 18 20 23 24 24 22 19 15 11 8 6 7
19 20 16 19 21 17 12 16 16 14 14 15 14 8 8 7 12 8 9 7 2 3 3 3 3 4 6 9 11 15 18 19 18 15 11 7 2 3
19 18 17 21 20 19 19 17 17 18 19 17 12 14 15 13 12 11 7 5 4 3 3 2 2 4 4 7 14 15 16 17 19 18 16 13 7 5
16 16 15 14 17 15 19 20 18 16 19 22 18 18 17 16 16 15 12 13 9 8 5 3 2 5 3 10 13 13 12 12 14 15 19 18 15 11
16 16 15 16 16 15 18 19 20 19 15 12 20 17 14 13 16 18 15 5 6 4 4 4 3 3 2 8 13 15 15 13 12 13 16 20 21 19
15 14 14 15 19 24 16 20 18 16 4 8 12 11 16 16 14 9 8 10 2 3 1 4 4 5 2 2 6 12 15 18 13 11 16 18 14 19
15 13 15 14 25 22 12 15 16 14 8 5 3 6 8 14 22 18 13 13 5 2 5 5 6 5 4 1 3 4 9 12 16 13 16 16 15 13
12 11 11 24 25 20 15 13 15 8 8 9 8 5 3 7 11 12 15 13 10 2 8 5 6 5 3 5 3 3 4 4 8 9 16 15 14 14
14 12 14 28 26 21 15 12 13 11 8 10 9 6 5 4 1 1 2 5 4 6 17 9 7 8 6 4 4 4 5 3 4 6 8 18 21 21
14 20 27 25 25 18 24 20 6 9 10 10 12 9 7 6 8 4 10 12 11 8 8 2 10 11 8 8 8 6 8 4 4 6 4 4 5 8
20 15 18 18 20 17 17 16 9 6 5 11 9 6 7 8 8 4 6 8 6 6 9 8 9 12 6 9 13 11 7 5 6 6 7 6 9 12
15 13 15 16 16 16 15 14 11 10 8 6 4 6 9 9 7 7 7 5 4 9 7 8 13 14 10 13 10 10 9 9 8 9 10 9 7 8
13 15 15 15 15 16 14 14 13 14 10 8 7 5 3 8 9 7 7 3 13 9 11 11 14 14 12 13 12 11 10 9 8 9 9 11 9 8
15 14 14 15 15 14 14 13 13 11 12 10 9 8 7 5 8 9 8 10 7 11 8 9 9 13 14 8 4 7 11 9 9 8 8 10 12 9
14 13 14 14 14 14 14 13 13 12 11 11 11 10 9 7 7 7 7 8 11 9 8 7 8 7 14 11 8 7 13 11 11 11 11 11 12 24
14 14 14 14 14 14 14 14 14 14 13 11 11 10 9 7 9 8 9 12 10 8 12 8 5 13 12 13 11 10 7 15 13 13 12 12 10 9
13 13 14 14 14 14 14 14 14 15 14 12 11 10 9 8 9 9 8 9 8 9 10 7 6 9 11 14 13 14 10 11 20 16 12 7 7 7
12 13 13 13 13 14 14 13 14 13 13 12 11 10 9 9 9 9 9 9 9 8 9 9 9 10 11 12 15 12 19 14 10 11 11 20 27 32
Wind_Direction
266 260 250 248 249 255 249 245 252 215 214 196 177 203 207 209 204 197 207 201 204 203 201 203 202 202 203 204 206 208 211 214 219 221 224 226 228 231
287 272 245 242 244 245 238 251 237 274 231 198 205 191 199 214 199 194 204 201 200 204 202 201 203 204 206 206 207 209 211 213 217 220 222 226 228 230
300 300 254 241 242 241 236 221 226 238 242 202 201 193 196 207 201 199 199 202 197 207 207 202 202 203 205 207 208 209 212 216 219 221 224 227 230 234
302 300 293 247 242 241 227 213 216 214 262 220 182 193 199 203 201 195 196 195 203 195 207 210 205 204 204 206 207 208 213 216 220 223 225 230 237 243
293 286 281 285 242 236 218 221 210 216 227 261 180 193 204 201 199 190 186 190 196 191 195 206 212 206 205 206 206 205 209 213 216 215 210 210 221 238
291 282 275 271 261 236 230 228 224 201 201 248 207 187 192 195 201 188 174 178 150 95 99 184 194 202 198 196 194 194 195 187 172 164 161 170 200 238
300 288 273 269 278 250 233 228 221 215 209 214 222 190 187 181 191 188 187 165 89 125 102 57 92 111 114 115 136 147 145 143 144 144 141 142 144 274
310 304 293 279 263 246 233 234 225 211 210 215 208 214 201 189 193 189 165 142 175 173 110 86 67 80 83 103 120 131 139 143 144 142 133 115 90 42
311 304 305 289 273 259 230 233 233 236 222 213 214 213 202 194 184 186 187 186 189 159 111 106 78 92 91 108 114 117 121 129 133 131 128 105 87 68
314 312 311 308 305 311 238 231 231 229 230 232 210 214 208 200 198 187 188 131 62 104 127 120 148 96 104 115 126 127 128 128 131 125 125 109 89 78
316 310 315 309 306 310 300 220 224 227 130 217 252 252 196 177 189 172 151 155 122 200 166 114 149 120 112 99 108 127 130 131 135 135 134 121 118 83
317 312 313 308 302 297 280 240 220 219 184 153 177 208 236 182 173 186 173 180 146 116 206 108 141 144 137 107 123 111 108 116 124 138 136 129 113 102
325 328 329 326 321 307 288 248 223 183 191 201 205 180 170 202 191 193 185 183 177 155 168 119 148 142 98 138 131 143 133 106 114 123 113 116 115 110
331 337 336 340 344 338 344 239 242 162 177 195 205 187 162 184 75 107 117 95 157 192 166 149 143 160 138 138 144 153 131 134 146 117 106 103 94 87
341 343 348 354 355 355 358 12 205 201 186 191 196 196 177 145 114 90 80 88 71 78 143 138 148 152 145 136 143 153 144 167 122 128 118 107 108 115
350 349 355 360 13 5 12 13 13 10 206 195 187 149 137 142 146 138 130 130 114 84 57 71 127 144 127 131 137 143 148 140 142 134 120 103 91 95
351 6 7 9 9 8 12 13 12 17 35 45 103 156 152 145 140 123 135 143 141 151 114 100 93 89 82 122 121 128 124 127 136 134 120 105 93 89
11 16 9 9 9 7 9 8 10 14 20 37 57 61 105 142 138 129 116 124 136 131 134 130 125 113 92 53 67 127 128 133 133 129 121 114 102 97
20 13 11 8 7 6 8 11 9 7 11 30 39 43 58 45 111 118 118 115 139 118 130 141 148 116 121 120 98 106 132 132 130 122 117 115 115 109
15 8 7 6 6 6 7 9 12 12 18 27 32 35 39 46 64 72 98 115 119 120 106 82 74 121 134 134 128 111 126 130 132 123 117 101 101 105
7 7 5 4 3 4 6 8 11 14 17 23 29 32 32 43 55 64 72 90 87 96 83 65 75 105 108 110 109 110 87 100 119 126 131 121 124 131
7 5 3 3 3 4 5 6 9 13 13 20 23 29 32 41 53 58 61 74 77 81 94 109 123 119 115 117 117 115 116 103 88 79 72 87 149 146
4 3 4 4 3 3 5 6 8 9 9 11 19 23 30 37 44 55 63 69 83 92 104 103 96 97 102 109 113 113 116 113 113 96 78 94 96 99